(332870) = 2010 XP1

Discovered at Mount Lemmon on 2010-11-08 by Mt. Lemmon Survey.

Orbit

Orbit type: Main Belt

Note: WebGL enabled browser required.

epoch2024-03-31.0
epoch JD2460400.5
perihelion date2024-02-07.27398
perihelion JD2460347.77399
argument of perihelion (°)351.78386
ascending node (°)173.68787
inclination (°)4.98802
eccentricity0.1904684
perihelion distance (AU)2.0714486
Tisserand w.r.t. Jupiter3.4
ΔV w.r.t. Earth (km/sec)9.2
semimajor axis (AU)2.5588238
mean anomaly (°)12.69604
mean daily motion (°/day)0.24079280
aphelion distance (AU)3.046
period (years)4.09
P-vector [x]-0.96808350
P-vector [y]0.23460639
P-vector [z]0.08817133
Q-vector [x]-0.25044552
Q-vector [y]-0.91895726
Q-vector [z]-0.30462205
absolute magnitude16.86
phase slope0.15
uncertainty0
referenceE2024-GI3
observations used419
oppositions16
arc length (days)8265
first opposition used2001
last opposition used2024
residual rms (arc-secs)0.74
perturbers coarse indicatorM-v
perturbers precise indicator003Ek
first observation date used2001-08-26.0
last observation date used2024-04-12.0
computer nameMPCLINUX
JD of orbit computation2456966.826128
perihelion JD uncertainty (days)7.6952E-05
argument of perihelion uncertainty (°)6.7687E-05
ascending node uncertainty (°)6.5488E-05
inclination uncertainty (°)4.7919E-06
eccentricity uncertainty 3.8219E-08
perihelion distance uncertainty (AU)1.0115E-07
Minimum Orbit Intersection Distances (in AU)
for orbit epoch: 2460400.5, reference: E2024-GI3
Mercury1.68865
Venus1.35489
Earth1.07922
Mars0.41506
Jupiter1.92777
Saturn6.40582
Uranus16.3686
Neptune26.8595

Observations

396 total observations over interval: 2001 08 26.32711 – 2024 03 18.301893
These data are available for download (format description).

Date (UT) J2000 RA J2000 Dec Magn Location Ref
2001 08 26.32711 23 55 30.80 -00 01 23.3 22.0 V 691 – Steward Observatory, Kitt Peak-Spacewatch MPS 384718
2001 08 26.35603 23 55 29.65 -00 01 32.8 22.5 V 691 – Steward Observatory, Kitt Peak-Spacewatch MPS 384718
2001 08 26.38056 23 55 28.70 -00 01 40.7 22.1 V 691 – Steward Observatory, Kitt Peak-Spacewatch MPS 384718
2005 10 01.18422 22 53 50.49 -06 33 47.4 21.4 V G96 – Mt. Lemmon Survey MPS 384718
2005 10 01.19089 22 53 50.24 -06 33 48.8 20.7 V G96 – Mt. Lemmon Survey MPS 384718
2005 10 01.19755 22 53 49.88 -06 33 51.9 20.6 V G96 – Mt. Lemmon Survey MPS 384718
2005 10 01.20419 22 53 49.70 -06 33 53.6 20.9 V G96 – Mt. Lemmon Survey MPS 384718
2006 11 17.43499 05 24 38.23 +15 30 40.6 20.0 V G96 – Mt. Lemmon Survey MPS 384718
2006 11 17.44050 05 24 37.98 +15 30 39.6 19.9 V G96 – Mt. Lemmon Survey MPS 384718
2006 11 17.44604 05 24 37.76 +15 30 38.8 19.7 V G96 – Mt. Lemmon Survey MPS 384718
2006 11 17.45159 05 24 37.51 +15 30 37.6 19.9 V G96 – Mt. Lemmon Survey MPS 384718
2008 05 05.41197 16 48 33.26 -14 49 01.9 19.4 V G96 – Mt. Lemmon Survey MPS 384718
2008 05 05.41720 16 48 33.04 -14 49 00.1 19.8 V G96 – Mt. Lemmon Survey MPS 384718
2008 05 05.42270 16 48 32.83 -14 48 58.6 19.8 V G96 – Mt. Lemmon Survey MPS 384718
2008 05 05.42789 16 48 32.58 -14 48 57.5 19.6 V G96 – Mt. Lemmon Survey MPS 384718
2009 09 22.23360 22 25 29.74 -08 22 40.8 21.5 V G96 – Mt. Lemmon Survey MPS 384718
2009 09 22.24073 22 25 29.46 -08 22 43.1 21.4 V G96 – Mt. Lemmon Survey MPS 384718
2009 09 22.24800 22 25 29.20 -08 22 44.8 21.0 V G96 – Mt. Lemmon Survey MPS 384718
2009 09 22.25492 22 25 28.92 -08 22 48.2 21.7 V G96 – Mt. Lemmon Survey MPS 384718
2010 11 08.36722 04 29 28.24 +14 36 03.3 20.0 V G96 – Mt. Lemmon Survey MPS 384045
2010 11 08.37358 04 29 27.96 +14 36 01.7 19.9 V G96 – Mt. Lemmon Survey MPS 384045
2010 11 08.37994 04 29 27.67 +14 36 00.1 20.0 V G96 – Mt. Lemmon Survey MPS 384045
2010 11 08.38633 04 29 27.34 +14 35 58.7 19.8 V G96 – Mt. Lemmon Survey MPS 384045
2010 12 01.24211 04 08 13.30 +13 10 10.5 19.6 V G96 – Mt. Lemmon Survey MPS 359388
2010 12 01.24891 04 08 12.87 +13 10 09.2 19.4 V G96 – Mt. Lemmon Survey MPS 359388
2010 12 01.25580 04 08 12.44 +13 10 07.9 19.2 V G96 – Mt. Lemmon Survey MPS 359388
2010 12 01.26267 04 08 12.01 +13 10 06.7 19.4 V G96 – Mt. Lemmon Survey MPS 359388
2010 12 02.33926 04 07 07.46 +13 06 42.3 20.3 V 703 – Catalina Sky Survey MPS 359388
2010 12 02.34597 04 07 07.06 +13 06 40.2 19.4 V 703 – Catalina Sky Survey MPS 359388
2010 12 02.35272 04 07 06.56 +13 06 39.7 20.2 V 703 – Catalina Sky Survey MPS 359388
2010 12 02.35939 04 07 06.13 +13 06 37.9 19.7 V 703 – Catalina Sky Survey MPS 359388
2010 12 03.41161 04 06 03.51 +13 03 23.2 20.3 V 291 – LPL/Spacewatch II MPS 359388
2010 12 03.41549 04 06 03.29 +13 03 22.5 20.3 V 291 – LPL/Spacewatch II MPS 359388
2010 12 03.41928 04 06 03.06 +13 03 21.8 20.2 V 291 – LPL/Spacewatch II MPS 359388
2010 12 09.13909 04 00 32.54 +12 47 31.7 19.9 V G96 – Mt. Lemmon Survey MPS 359388
2010 12 09.14665 04 00 32.11 +12 47 30.5 19.8 V G96 – Mt. Lemmon Survey MPS 359388
2010 12 09.15431 04 00 31.64 +12 47 29.6 19.9 V G96 – Mt. Lemmon Survey MPS 359388
2010 12 09.16184 04 00 31.21 +12 47 28.5 19.9 V G96 – Mt. Lemmon Survey MPS 359388
2012 04 18.38822 15 52 10.28 -13 25 26.4 20.6 V 691 – Steward Observatory, Kitt Peak-Spacewatch MPS 420896
2012 04 18.40601 15 52 09.63 -13 25 21.1 20.4 V 691 – Steward Observatory, Kitt Peak-Spacewatch MPS 420896
2012 04 18.42381 15 52 09.02 -13 25 15.7 20.5 V 691 – Steward Observatory, Kitt Peak-Spacewatch MPS 420896
2012 04 22.36764 15 49 47.90 -13 05 04.7 19.9 V 691 – Steward Observatory, Kitt Peak-Spacewatch MPS 421918
2012 04 22.38581 15 49 47.15 -13 04 58.8 19.7 V 691 – Steward Observatory, Kitt Peak-Spacewatch MPS 421918
2012 04 22.40112 15 49 46.51 -13 04 54.2 19.8 V 691 – Steward Observatory, Kitt Peak-Spacewatch MPS 421918
2012 05 01.33122 15 43 09.01 -12 18 14.3 20.1 V 691 – Steward Observatory, Kitt Peak-Spacewatch MPS 422885
2012 05 01.34733 15 43 08.23 -12 18 09.2 19.9 V 691 – Steward Observatory, Kitt Peak-Spacewatch MPS 422885
2012 05 01.36345 15 43 07.34 -12 18 03.9 20.2 V 691 – Steward Observatory, Kitt Peak-Spacewatch MPS 422885
2012 05 20.35503 15 26 17.073 -10 49 24.74 19.9 g F51 – Pan-STARRS 1, Haleakala MPS 425004
2012 05 20.36598 15 26 16.466 -10 49 22.57 20.2 g F51 – Pan-STARRS 1, Haleakala MPS 425004
2012 06 05.31464 15 14 12.205 -10 06 20.53 19.4 i F51 – Pan-STARRS 1, Haleakala MPS 426533
2012 06 05.32607 15 14 11.768 -10 06 19.47 19.4 i F51 – Pan-STARRS 1, Haleakala MPS 426533
2012 06 14.22082 15 09 48.88 -09 59 28.0 20.2 V G96 – Mt. Lemmon Survey MPS 426533
2012 06 14.22607 15 09 48.70 -09 59 28.1 20.2 V G96 – Mt. Lemmon Survey MPS 426533
2012 06 14.23135 15 09 48.60 -09 59 28.0 20.2 V G96 – Mt. Lemmon Survey MPS 426533
2012 06 14.23656 15 09 48.45 -09 59 28.1 20.1 V G96 – Mt. Lemmon Survey MPS 426533
2013 08 12.45277 22 24 09.115 -06 47 55.80 21.2 w F51 – Pan-STARRS 1, Haleakala MPS 474341
2013 08 12.46829 22 24 08.365 -06 48 00.78 21.3 w F51 – Pan-STARRS 1, Haleakala MPS 474341
2013 08 12.48330 22 24 07.650 -06 48 05.78 21.4 w F51 – Pan-STARRS 1, Haleakala MPS 474341
2013 08 12.49827 22 24 06.911 -06 48 10.74 21.5 w F51 – Pan-STARRS 1, Haleakala MPS 474341
2013 08 28.20384 22 11 11.18 -08 20 55.1 20.8 V G96 – Mt. Lemmon Survey MPS 474863
2013 08 28.20808 22 11 10.99 -08 20 56.6 20.6 V G96 – Mt. Lemmon Survey MPS 474863
2013 08 28.21238 22 11 10.78 -08 20 58.2 20.9 V G96 – Mt. Lemmon Survey MPS 474863
2013 08 28.21656 22 11 10.55 -08 20 59.7 20.5 V G96 – Mt. Lemmon Survey MPS 474863
2013 09 03.26683 22 06 11.88 -08 57 39.9 20.6 V G96 – Mt. Lemmon Survey MPS 476116
2013 09 03.27295 22 06 11.57 -08 57 42.3 21.0 V G96 – Mt. Lemmon Survey MPS 476116
2013 09 03.27890 22 06 11.23 -08 57 44.3 20.0 V G96 – Mt. Lemmon Survey MPS 476116
2013 09 03.28477 22 06 11.01 -08 57 47.1 21.0 V G96 – Mt. Lemmon Survey MPS 476116
2013 09 12.21604 21 59 24.84 -09 49 15.0 20.8 V G96 – Mt. Lemmon Survey MPS 477646
2013 09 12.22500 21 59 24.43 -09 49 17.5 21.1 V G96 – Mt. Lemmon Survey MPS 477646
2013 09 12.23397 21 59 24.08 -09 49 20.4 21.0 V G96 – Mt. Lemmon Survey MPS 477646
2013 09 12.24297 21 59 23.66 -09 49 23.7 21.1 V G96 – Mt. Lemmon Survey MPS 477646
2014 09 20.53745 03 56 48.731 +15 37 22.07 21.9 w F51 – Pan-STARRS 1, Haleakala MPS 536349
2014 09 20.54983 03 56 48.880 +15 37 20.93 21.6 w F51 – Pan-STARRS 1, Haleakala MPS 536349
2014 09 20.56215 03 56 49.051 +15 37 19.45 21.6 w F51 – Pan-STARRS 1, Haleakala MPS 536349
2014 10 25.52479 03 49 04.240 +13 40 53.67 20.7 w F51 – Pan-STARRS 1, Haleakala MPS 544148
2014 10 25.53774 03 49 03.682 +13 40 50.14 20.5 w F51 – Pan-STARRS 1, Haleakala MPS 544148
2014 10 25.55066 03 49 03.131 +13 40 46.53 20.6 w F51 – Pan-STARRS 1, Haleakala MPS 544148
2014 10 25.56360 03 49 02.593 +13 40 43.01 20.7 w F51 – Pan-STARRS 1, Haleakala MPS 544148
2014 11 17.27491 03 29 28.25 +11 52 44.5 20.0 r G45 – Space Surveillance Telescope, Atom Site MPS 558356
2014 11 17.27905 03 29 27.99 +11 52 44.2 20.6 r G45 – Space Surveillance Telescope, Atom Site MPS 558356
2014 11 17.28366 03 29 27.72 +11 52 42.5 20.1 r G45 – Space Surveillance Telescope, Atom Site MPS 558356
2014 11 17.28791 03 29 27.39 +11 52 40.6 20.6 r G45 – Space Surveillance Telescope, Atom Site MPS 558356
2014 11 17.40909 03 29 20.24 +11 52 07.7 19.6 V G96 – Mt. Lemmon Survey MPS 547498
2014 11 17.41419 03 29 19.95 +11 52 06.3 19.7 V G96 – Mt. Lemmon Survey MPS 547498
2014 11 17.41932 03 29 19.63 +11 52 04.9 19.7 V G96 – Mt. Lemmon Survey MPS 547498
2014 11 17.42443 03 29 19.31 +11 52 03.5 19.7 V G96 – Mt. Lemmon Survey MPS 547498
2014 11 20.29158 03 26 32.79 +11 39 12.9 20.0 V G96 – Mt. Lemmon Survey MPS 547498
2014 11 20.29645 03 26 32.51 +11 39 11.7 19.9 V G96 – Mt. Lemmon Survey MPS 547498
2014 11 20.30132 03 26 32.18 +11 39 10.5 20.0 V G96 – Mt. Lemmon Survey MPS 547498
2014 11 20.30620 03 26 31.91 +11 39 08.9 19.9 V G96 – Mt. Lemmon Survey MPS 547498
2014 11 23.25435 03 23 41.90 +11 26 32.2 20.0 r G45 – Space Surveillance Telescope, Atom Site MPS 567109
2014 11 23.25849 03 23 41.56 +11 26 30.9 19.8 r G45 – Space Surveillance Telescope, Atom Site MPS 567109
